Location: Bothwell
(42.3833°S, 147.0000°E)
Time: 19:37:35
(UTC+11:00)

CUBESAT XI-V - Pass Details

Date: 29 September 2022
Orbit: 666 x 689 km, 98.1° (Epoch: 25 November)

Event Time Altitude Azimuth Distance (km) Brightness Sun altitude
Rises 03:58:54 0° 182° (S) 3,087 ? -20.7°
Reaches altitude 10° 04:01:37 10° 197° (SSW) 2,166 ? -20.2°
Enters shadow 04:04:28 20° 233° (SW) 1,580 ? -19.7°
